Regional Weather Roundup
Issued by NWS Green Bay, WI

Home | Current Version | Previous Version | Text Only | Print | Product List | Glossary On
Versions: 1 2 3 4 5 6 7 8 9 10 11 12 13 14 15 16 17 18 19 20 21 22 23 24 25 26 27 28 29 30 31 32 33 34 35 36 37 38 39 40 41 42 43 44 45 46 47 48 49 50
653
ASUS43 KGRB 280011
RWRGRB

NORTH-CENTRAL AND NORTHEAST WISCONSIN REGIONAL WEATHER ROUNDUP
NATIONAL WEATHER SERVICE GREEN BAY WI
700 PM CDT MON MAR 27 2017

WIZ005-009-010>012-018-019-280100-
NORTH CENTRAL WISCONSIN

CITY           SKY/WX    TMP DP  RH WIND       PRES   REMARKS
IRONWOOD       CLOUDY    42  32  67 N5        29.99R
MANITOWISH WTR PTCLDY    44  32  60 NE3       29.96R
ARBOR VITAE    CLEAR     44  32  63 N3        29.95R
EAGLE RIVER    CLEAR     41  31  68 CALM      29.95R
LAND O LAKES   CLEAR     43  32  64 N3        29.97R
RHINELANDER    CLOUDY    44  32  62 NE6       29.96R
PHILLIPS       CLEAR     46  33  60 N5        29.95R
ANTIGO         CLOUDY    39  37  92 NE5       29.95R
TOMAHAWK       CLEAR     44  32  63 CALM      29.96R
MERRILL        CLOUDY    42  38  85 CALM      29.97R
$$

WIZ013-073-280100-
NORTHEAST WISCONSIN

CITY           SKY/WX    TMP DP  RH WIND       PRES   REMARKS
IRON MOUNTAIN  CLOUDY    40  34  79 NW5       29.95R
MARINETTE        N/A    N/A N/A N/A MISG        N/A
OCONTO         CLOUDY    38  33  83 SE3       29.97S
$$

WIZ017-030-035>037-045-280100-
CENTRAL WISCONSIN

CITY           SKY/WX    TMP DP  RH WIND       PRES   REMARKS
MEDFORD        CLOUDY    42  38  86 CALM      29.96R
WAUSAU         CLOUDY    43  38  82 N3        29.95R
MOSINEE        CLOUDY    43  39  87 N3        29.96R
MARSHFIELD     CLOUDY    42  37  82 N6        29.95R
WISC RAPIDS    CLOUDY    43  40  89 N3        29.97R
STEVENS POINT  CLOUDY    41  38  91 CALM      29.96R
WAUPACA        CLOUDY    44  41  91 CALM      29.97R
SHAWANO        CLOUDY    44  39  83 CALM      29.96S
CLINTONVILLE   CLOUDY    43  37  81 CALM      29.96R
WAUTOMA        NOT AVBL
$$

WIZ038-039-048-051-280100-
FOX VALLEY

CITY           SKY/WX    TMP DP  RH WIND       PRES   REMARKS
NWS GREEN BAY  CLOUDY    41  37  86 NE5       29.97S
APPLETON       CLOUDY    41  39  93 VRB5      29.94S
OSHKOSH        CLOUDY    42  38  85 NE7       29.96R FOG
FOND DU LAC    CLOUDY    43  37  79 NE8       29.96R
$$

WIZ022-050-052-280100-
EAST CENTRAL WISCONSIN

CITY           SKY/WX    TMP DP  RH WIND       PRES   REMARKS
EPHRAIM        CLOUDY    38  37  97 CALM      29.96S
WASHINGTON ISL CLOUDY    37  33  88 CALM      29.97S
STURGEON BAY   CLOUDY    39  36  89 CALM      29.96F
MANITOWOC      CLOUDY    38  35  89 NE5       29.99R
SHEBOYGAN      CLOUDY    38  33  82 E8        29.97R
$$

LMZ563-521-522-541>543-280100-
LAKESHORE

STATION/POSITION TIME  TEMP    WIND        PRES    VSBY  WAVE
                       AIR SEA DIR/SP/G                  HT/PER
                 (UTC) (F)     (DEG/KT/KT) (MB)    (MI)  (FT/S)
SHEBOYGAN LKSHOR 0000   36      10/  4/  4 1015.6R
KEWAUNEE LKSHORE 2348   37      CALM  /  1 1014.8R
NORTHPORT PIER   2340   35     320/  2/  3 1015.2R
SISTER BAY LKSHO 2336   37        CALM       N/A
CHAMBERS ISLAND  2340   38      CALM  /  2 1014.6S
MENOMINEE LKSHOR 2348   36     160/  3/  4 1014.1F
$$




USA.gov is the U.S. government's official web portal to all federal, state and local government web resources and services.